Find Starlink 3245

NORAD ID: 50170 Int'l Des: 2021-125 Owner: SPXS Country: US Constellation: starlink operational
LEOCIRCULAR

現在のビュー

3D地球を読み込み中...

About Starlink 3245

Starlink 3245 (NORAD 50170) is a starlink constellation satellite (v1.5) launched Dec 18, 2021 by SPXS of US. It operates in LEO, CIRCULAR orbit with a mass of 290.00 kg.

Starlink 3245について

説明を読み込み中...

次回通過

Passes for default location (London). Set your location on the main map for personalized predictions.

高度履歴

Loading altitude history...

軌道要素

1 50170U 21125Q 26171.30860036 -.00000270 00000-0 11517-5 0 9997
2 50170 53.1588 148.3325 0001230 73.9984 286.1143 15.08830235252084
Epoch: Jun 20, 2026 • Age: 36 hours

現在のステータス

高度 540.5 km
速度 7.60 km/s
衛星直下点 25.46°N, 105.4°E
打ち上げ日 Dec 18, 2021
運用期間 4.5 years
タイプ internet

技術仕様

分類 Payload
質量 290.00 kg
乾燥質量 270.00 kg
総質量 290.00 kg
長さ 0.20 m
直径 2.80 m
スパン 9.00 m
形状 Box + pan
製造者 SPXS
バスタイプ Starlink
フェーズステータス In Orbit
所有者/国 SPXS/US

Most Searched